Boothville, LA

1:57 AM CDT on June 29, 2017 (GMT -0500)
Boothville

Weather History for KBVE - February, 2014

Change the Weather History Date:

Thursday, February 13, 2014

  Actual Average (KAXO) Record (KAXO)
Temperature  
Mean Temperature 44 °F -  
Max Temperature 48 °F 60 °F 71 °F (2007)
Min Temperature 39 °F 56 °F 37 °F (2014)
Degree Days  
Heating Degree Days 22    
Moisture  
Dew Point 37 °F    
Average Humidity 82    
Maximum Humidity 93    
Minimum Humidity 68    
Precipitation  
Precipitation 0.00 in - - ()
Sea Level Pressure  
Sea Level Pressure 30.04 in    
Wind  
Wind Speed 12 mph (NW)    
Max Wind Speed 17 mph    
Max Gust Speed 25 mph    
Visibility 10 miles    
Events      
Averages and records for this station are not official NWS values.
T = Trace of Precipitation, MM = Missing Value Source: NWS Daily Summary

Daily Weather History Graph

Daily Weather History Graph

Search for Another Location

Airport or City:

Trip Planner

Search our weather history database for the weather conditions in past years. The results will help you decide how hot, cold, wet, or windy it might be!

Date:

Astronomy

Feb. 13, 2014 Rise Set
Actual Time 6:38 AM CST 5:45 PM CST
Civil Twilight 6:13 AM CST 6:10 PM CST
Nautical Twilight 5:46 AM CST 6:37 PM CST
Astronomical Twilight 5:18 AM CST 7:05 PM CST
Moon 4:53 PM CST (2/13) 5:30 AM CST (2/13)
Length of Visible Light 11h 56m
Length of Day
11h 07m
Waxing Gibbous, 99% of the Moon is Illuminated
Feb 13
Waxing Gibbous
Feb 14
Full
Feb 22
Last Quarter
Mar 1
New
Mar 8
First Quarter

Hourly Weather History & Observations

Time (CST) Temp. Windchill Dew Point Humidity Pressure Visibility Wind Dir Wind Speed Gust Speed Precip Events Conditions
12:51 AM 39.0 °F 30.6 °F 35.1 °F 86% 29.99 in 10.0 mi NW 15.0 mph 25.3 mph N/A   Overcast
1:35 AM 39.0 °F 30.3 °F 36.0 °F 89% 29.99 in 10.0 mi NW 16.1 mph 23.0 mph N/A   Overcast
1:51 AM 39.0 °F 30.3 °F 36.0 °F 89% 29.99 in 10.0 mi NW 16.1 mph 25.3 mph N/A   Overcast
2:33 AM 39.0 °F 31.4 °F 35.1 °F 86% 29.99 in 10.0 mi NW 12.7 mph 23.0 mph N/A   Overcast
2:51 AM 39.0 °F 29.9 °F 35.1 °F 86% 30.00 in 10.0 mi NW 17.3 mph 24.2 mph N/A   Overcast
3:51 AM 39.0 °F 31.4 °F 35.1 °F 86% 30.00 in 10.0 mi NW 12.7 mph 23.0 mph N/A   Overcast
4:20 AM 39.0 °F 31.4 °F 35.1 °F 86% 30.02 in 10.0 mi NW 12.7 mph 20.7 mph N/A   Overcast
4:51 AM 39.0 °F 30.6 °F 35.1 °F 86% 30.03 in 10.0 mi NNW 15.0 mph - N/A   Overcast
5:51 AM 39.0 °F 30.3 °F 35.1 °F 86% 30.04 in 10.0 mi NNW 16.1 mph - N/A   Overcast
6:51 AM 39.0 °F 32.3 °F 35.1 °F 86% 30.06 in 10.0 mi NNW 10.4 mph - N/A   Overcast
7:51 AM 39.0 °F 31.8 °F 35.1 °F 86% 30.06 in 9.0 mi NNW 11.5 mph - N/A   Overcast
8:51 AM 39.0 °F 33.4 °F 34.0 °F 82% 30.09 in 10.0 mi North 8.1 mph 18.4 mph N/A   Overcast
9:51 AM 39.9 °F 33.9 °F 35.1 °F 83% 30.09 in 9.0 mi NNW 9.2 mph - N/A   Overcast
10:51 AM 41.0 °F 35.8 °F 36.0 °F 82% 30.09 in 9.0 mi North 8.1 mph - N/A   Overcast
11:21 AM 42.1 °F 37.7 °F 35.1 °F 76% 30.09 in 10.0 mi NNW 6.9 mph - N/A   Scattered Clouds
11:42 AM 42.1 °F 37.7 °F 36.0 °F 79% 30.09 in 10.0 mi WNW 6.9 mph - N/A   Mostly Cloudy
11:51 AM 41.0 °F 36.4 °F 36.0 °F 82% 30.09 in 10.0 mi NW 6.9 mph - N/A   Mostly Cloudy
12:18 PM 43.0 °F 38.2 °F 36.0 °F 76% 30.07 in 10.0 mi NNW 8.1 mph - N/A   Partly Cloudy
12:51 PM 44.1 °F 39.5 °F 37.0 °F 76% 30.05 in 10.0 mi NNW 8.1 mph - N/A   Clear
1:51 PM 46.0 °F 43.9 °F 37.0 °F 71% 30.03 in 10.0 mi NNW 4.6 mph - N/A   Clear
2:51 PM 46.9 °F - 37.0 °F 68% 30.02 in 10.0 mi North 5.8 mph - N/A   Clear
3:51 PM 48.0 °F - 39.0 °F 71% 30.03 in 10.0 mi SW 8.1 mph - N/A   Clear
4:51 PM 48.9 °F - 41.0 °F 74% 30.04 in 10.0 mi SW 8.1 mph - N/A   Clear
5:51 PM 46.9 °F - 41.0 °F 80% 30.04 in 10.0 mi SSW 5.8 mph - N/A   Clear
6:51 PM 48.0 °F - 41.0 °F 77% 30.04 in 10.0 mi WSW 6.9 mph - N/A   Clear
7:51 PM 48.0 °F - 43.0 °F 83% 30.05 in 10.0 mi WSW 5.8 mph - N/A   Clear
8:51 PM 48.9 °F - 43.0 °F 80% 30.05 in 10.0 mi SW 5.8 mph - N/A   Clear
9:51 PM 48.9 °F - 44.1 °F 83% 30.05 in 10.0 mi SW 5.8 mph - N/A   Clear
10:51 PM 45.0 °F 41.8 °F 42.1 °F 90% 30.04 in 9.0 mi WNW 5.8 mph - N/A   Clear
11:51 PM 43.0 °F 39.5 °F 41.0 °F 93% 30.04 in 6.0 mi WNW 5.8 mph - N/A   Clear